CAPE
390 1462 2330 2369 1945 1861 1614 1131 1181 814 448 328 192 35 0 0 0 98 175 124 93 14 7 8 3 5 1 0 0 0 0 0 0 0 0 2 8 33 99 86 73 68 84
615 1731 2221 2292 2152 2080 1961 1752 1657 1365 1070 423 140 1 0 0 26 272 167 3 2 2 6 7 8 7 3 3 3 4 3 0 0 0 0 0 0 0 0 0 1 4 0
1192 1543 1511 2174 2118 2158 2138 1551 1477 1155 859 267 43 0 5 8 312 360 1 7 3 1 4 10 5 6 2 1 0 0 0 0 0 0 0 0 4 78 112 2 0 0 0
1491 1469 1304 2002 2144 2297 2151 1630 1445 830 473 224 4 0 3 92 506 237 41 9 2 0 3 3 2 5 2 0 0 0 0 0 0 0 36 0 6 163 232 379 79 0 95
1570 1412 1490 2338 2377 2294 1902 1647 1057 427 174 57 0 21 34 145 441 422 135 18 0 0 0 0 0 0 0 0 0 0 0 0 0 29 89 7 38 165 207 244 232 261 242
1531 1478 1987 2352 2286 2123 1915 1399 802 270 67 0 0 105 431 143 475 587 130 0 0 0 0 0 0 0 0 0 0 0 0 0 0 0 78 139 254 210 154 111 60 54 110
1486 1601 1778 2187 2246 1972 1554 1175 852 275 42 0 0 597 502 126 738 453 96 24 0 0 0 0 0 0 0 0 0 0 0 0 0 0 10 27 53 1 21 2 0 0 0
1479 1742 1675 1854 1857 1728 1339 1199 842 202 25 15 88 668 761 628 486 121 74 46 3 0 1 4 1 0 0 0 0 0 0 0 0 0 0 0 22 4 3 0 0 0 0
1353 1505 1540 1525 1312 1289 1146 928 628 280 55 54 205 471 297 199 291 191 111 62 39 12 14 40 35 13 0 0 0 0 0 0 0 0 6 26 39 0 0 0 0 0 0
1389 1310 1328 1351 1163 926 646 489 380 169 56 73 53 53 48 57 111 150 92 82 45 24 37 46 41 21 0 0 0 0 0 0 0 3 36 38 67 2 0 0 0 0 0
1304 1221 1224 1223 1158 892 620 367 225 101 51 46 31 24 23 39 48 53 32 29 39 38 44 57 43 15 0 0 0 0 0 0 0 3 24 12 124 24 0 0 0 0 0
1012 941 748 989 1109 951 712 541 335 105 47 33 29 27 32 26 30 31 28 20 41 80 94 83 51 12 0 0 0 0 0 0 0 1 16 21 138 78 7 0 0 0 0
1151 1405 1617 927 922 860 785 741 489 229 57 32 12 1 1 0 10 30 26 20 37 40 75 84 60 16 0 0 0 0 0 0 0 0 0 24 146 143 55 1 0 0 0
785 757 834 838 709 692 573 601 504 320 72 43 16 0 0 0 0 0 4 4 7 15 45 47 54 32 6 0 0 0 0 0 0 0 0 0 76 204 119 29 0 0 0
761 772 640 771 814 653 516 374 382 343 178 93 53 20 0 0 0 0 0 0 0 0 4 14 18 25 13 0 0 0 0 0 0 0 0 0 2 150 164 75 25 1 0
839 920 650 638 764 748 476 328 342 328 304 252 122 43 11 0 0 0 0 0 0 0 0 0 0 2 0 0 0 0 0 0 0 0 0 0 0 27 175 123 54 25 8
775 950 674 585 637 529 437 352 309 334 372 277 150 71 39 0 0 0 0 0 0 0 0 0 0 0 0 0 0 0 0 0 0 5 0 0 0 0 24 199 107 63 28
841 941 726 657 575 533 443 383 357 318 236 129 86 67 47 29 0 0 0 20 32 35 23 19 16 4 2 0 0 0 6 21 32 35 47 65 43 30 25 52 280 202 96
670 791 844 806 726 657 647 559 476 411 316 183 171 118 90 69 50 9 0 28 42 46 52 79 80 59 70 70 46 25 30 33 51 47 71 94 100 79 60 49 46 161 252
185 439 530 567 611 680 733 756 636 449 483 423 306 277 224 180 148 143 122 116 103 109 120 144 144 150 131 79 42 19 33 33 8 15 61 82 121 116 92 66 34 20 16
0 22 402 444 536 646 603 610 629 521 445 453 336 159 330 333 300 273 341 353 304 259 204 190 175 119 81 32 28 2 0 0 0 5 0 0 0 2 40 46 19 3 0
0 0 0 11 4 330 601 584 532 523 522 501 349 355 479 434 396 361 332 343 354 376 384 304 225 185 42 91 65 44 12 1 0 0 0 0 0 0 0 0 0 7 9
0 0 0 0 0 0 61 310 410 491 544 584 570 511 480 417 390 308 304 287 233 258 312 307 306 243 175 133 113 61 35 5 2 1 0 0 0 0 0 0 0 0 6
0 0 0 0 0 0 0 0 1 60 82 61 29 0 0 0 0 0 0 0 12 21 43 142 521 273 176 92 78 33 33 29 41 6 0 0 8 6 4 2 4 1 0
0 0 0 0 0 0 0 0 0 0 0 0 0 0 0 0 0 0 0 0 0 2 2 5 4 7 181 126 85 37 26 56 8 29 10 9 6 4 5 0 1 0 2
0 0 0 0 0 0 0 0 0 0 0 0 0 0 0 0 0 0 0 0 0 0 1 1 2 2 72 154 92 38 26 33 14 5 6 11 2 0 2 0 0 0 0
CIN
-253 -48 -3 -0 -0 -0 -0 -0 -1 -0 -7 -31 -74 -179 -0 -0 -0 -133 -65 -83 -36 -1 -0 -0 -0 -0 -0 -0 -0 -0 -0 -0 -0 -0 -0 -0 -0 -0 -14 -14 -21 -19 -34
-244 -47 -9 -0 -0 -0 -0 -0 -0 -0 -0 -16 -106 -15 -0 -0 -111 -33 -44 -6 -0 -0 -0 -0 -0 -0 -0 -0 -0 -0 -0 -0 -0 -0 -0 -0 -0 -0 -0 -0 -0 -0 -0
-138 -73 -47 -6 -2 -0 -0 -3 -3 -6 -12 -49 -185 -0 -207 -95 -18 -7 -0 -0 -0 -0 -0 -0 -0 -0 -0 -0 -0 -0 -0 -0 -0 -0 -0 -0 -0 -4 -8 -0 -0 -0 -0
-105 -85 -75 -21 -8 -0 -0 -11 -20 -39 -49 -76 -76 -0 -116 -128 -0 -31 -122 -0 -0 -0 -0 -0 -0 -0 -0 -0 -0 -0 -0 -0 -0 -0 -7 -0 -0 -0 -46 -16 -11 -0 -9
-94 -90 -67 -16 -7 -2 -8 -16 -45 -83 -112 -180 -0 -188 -156 -108 -8 -5 -86 -14 -0 -0 -0 -0 -0 -0 -0 -0 -0 -0 -0 -0 -0 -23 -12 -0 -16 -0 -8 -37 -41 -32 -32
-89 -77 -32 -18 -15 -12 -11 -32 -61 -113 -190 -0 -0 -174 -46 -117 -20 -8 -124 -0 -0 -0 -0 -0 -0 -0 -0 -0 -0 -0 -0 -0 -0 -0 -28 -9 -52 -0 -0 -0 -2 -5 -5
-88 -57 -39 -21 -16 -27 -25 -50 -65 -129 -197 -0 -0 -80 -68 -137 -23 -31 -77 -102 -0 -0 -0 -0 -0 -0 -0 -0 -0 -0 -0 -0 -0 -0 -24 -36 -35 -0 -14 -0 -0 -0 -0
-76 -47 -38 -32 -27 -35 -50 -49 -73 -160 -215 -237 -187 -85 -68 -53 -58 -103 -116 -125 -15 -0 -0 -0 -0 -0 -0 -0 -0 -0 -0 -0 -0 -0 -0 -0 -30 -0 -0 -0 -0 -0 -0
-57 -57 -52 -48 -48 -54 -64 -78 -103 -143 -232 -185 -138 -94 -114 -156 -105 -160 -108 -132 -159 -162 -196 -156 -164 -147 -0 -0 -0 -0 -0 -0 -0 -0 -51 -105 -73 -0 -0 -0 -0 -0 -0
-51 -74 -86 -64 -58 -78 -105 -136 -144 -184 -209 -194 -209 -200 -210 -196 -154 -227 -141 -129 -175 -207 -169 -150 -168 -205 -0 -0 -0 -0 -0 -0 -0 -49 -133 -123 -104 -0 -0 -0 -0 -0 -0
-37 -61 -62 -56 -47 -63 -99 -151 -178 -225 -251 -261 -292 -293 -250 -215 -188 -176 -215 -219 -181 -164 -143 -128 -166 -265 -0 -0 -0 -0 -0 -0 -0 -245 -150 -188 -60 -133 -0 -0 -0 -0 -0
-55 -65 -81 -42 -40 -46 -74 -96 -139 -204 -244 -285 -295 -270 -251 -269 -264 -258 -266 -281 -208 -122 -99 -101 -165 -298 -0 -0 -0 -0 -0 -0 -0 -121 -205 -187 -49 -90 -131 -0 -0 -0 -0
-13 -6 -1 -32 -40 -41 -46 -51 -90 -147 -232 -280 -314 -47 -48 -24 -326 -259 -271 -279 -217 -198 -111 -95 -136 -249 -0 -0 -0 -0 -0 -0 -0 -0 -0 -181 -27 -34 -97 -25 -0 -0 -0
-68 -57 -32 -18 -41 -44 -64 -62 -77 -112 -172 -181 -224 -2 -0 -0 -0 -0 -275 -291 -268 -252 -155 -150 -138 -193 -297 -0 -0 -0 -0 -0 -0 -0 -0 -0 -54 -4 -48 -119 -19 -0 -0
-27 -30 -63 -25 -12 -34 -62 -100 -95 -100 -128 -130 -150 -200 -0 -0 -0 -0 -0 -0 -0 -0 -175 -197 -183 -169 -192 -0 -0 -0 -0 -0 -0 -0 -0 -0 -132 -6 -5 -46 -109 -36 -0
-55 -26 -55 -62 -32 -27 -71 -105 -107 -96 -91 -89 -117 -150 -151 -0 -0 -0 -0 -0 -0 -0 -0 -0 -0 -60 -0 -0 -0 -0 -0 -0 -0 -0 -0 -0 -0 -110 -2 -3 -38 -82 -27
-75 -23 -49 -69 -73 -90 -97 -107 -107 -102 -79 -86 -100 -123 -143 -0 -0 -0 -0 -0 -0 -0 -0 -0 -0 -0 -0 -0 -0 -0 -0 -0 -0 -38 -0 -0 -0 -0 -49 -0 -1 -19 -57
-46 -32 -21 -36 -54 -92 -95 -97 -93 -89 -103 -123 -128 -130 -140 -162 -0 -0 -0 -54 -33 -32 -38 -45 -47 -10 -7 -0 -0 -0 -21 -36 -30 -30 -28 -26 -29 -32 -40 -59 -0 -1 -2
-54 -34 -25 -35 -45 -43 -29 -28 -35 -39 -61 -64 -46 -51 -51 -46 -42 -21 -0 -38 -22 -20 -20 -19 -21 -18 -18 -14 -12 -23 -16 -17 -18 -17 -22 -18 -14 -21 -20 -17 -39 -10 -3
-55 -80 -86 -82 -74 -43 -26 -16 -14 -24 -26 -27 -44 -17 -10 -13 -14 -13 -17 -14 -9 -4 -4 -3 -3 -4 -6 -5 -8 -19 -28 -28 -6 -9 -17 -17 -18 -28 -23 -17 -14 -19 -24
-0 -77 -62 -72 -58 -50 -48 -45 -28 -28 -24 -29 -42 -22 -6 -9 -8 -10 -12 -11 -8 -6 -7 -4 -4 -10 -20 -13 -5 -4 -0 -0 -0 -7 -0 -0 -0 -16 -36 -23 -21 -15 -0
-0 -0 -0 -86 -54 -107 -45 -42 -29 -32 -25 -15 -7 -8 -7 -12 -13 -14 -16 -15 -11 -5 -4 -10 -6 -4 -12 -17 -5 -1 -0 -0 -0 -0 -0 -0 -0 -0 -0 -0 -0 -3 -5
-0 -0 -0 -0 -0 -0 -52 -75 -55 -37 -27 -18 -12 -14 -9 -10 -8 -11 -11 -11 -18 -10 -9 -13 -5 -5 -4 -3 -4 -0 -0 -0 -1 -2 -0 -0 -0 -0 -0 -0 -0 -0 -7
-0 -0 -0 -0 -0 -0 -0 -0 -12 -8 -5 -4 -4 -0 -0 -0 -0 -0 -0 -0 -6 -4 -53 -12 -0 -0 -0 -19 -40 -7 -5 -0 -0 -0 -0 -0 -13 -6 -0 -5 -7 -0 -1
-0 -0 -0 -0 -0 -0 -0 -0 -0 -0 -0 -0 -0 -0 -0 -0 -0 -0 -0 -0 -0 -0 -0 -0 -0 -0 -3 -19 -37 -5 -1 -0 -0 -0 -0 -0 -1 -6 -12 -0 -11 -0 -2
-0 -0 -0 -0 -0 -0 -0 -0 -0 -0 -0 -0 -0 -0 -0 -0 -0 -0 -0 -0 -0 -0 -0 -0 -0 -0 -8 -4 -29 -0 -0 -0 -0 -0 -0 -0 -0 -0 -1 -0 -0 -0 -0
Wind_Speed
11 12 15 16 17 19 20 18 18 17 16 14 14 nan nan nan nan nan 18 18 nan nan nan nan nan nan nan nan nan nan nan nan nan nan nan nan nan nan nan nan nan nan nan
17 16 19 17 19 19 20 19 18 17 14 13 12 nan nan nan nan 19 20 nan nan nan nan nan nan nan nan nan nan nan nan nan nan nan nan nan nan nan nan nan nan nan nan
22 19 21 19 20 20 21 20 19 16 15 13 nan nan nan nan 16 20 nan nan nan nan nan nan nan nan nan nan nan nan nan nan nan nan nan nan nan nan 17 nan nan nan nan
21 20 20 21 20 21 21 19 20 18 14 14 nan nan nan nan 18 21 nan nan nan nan nan nan nan nan nan nan nan nan nan nan nan nan nan nan nan 21 22 23 nan nan nan
19 18 20 22 20 22 18 19 20 16 14 nan nan nan nan 17 18 20 21 nan nan nan nan nan nan nan nan nan nan nan nan nan nan nan nan nan nan 23 26 27 28 25 23
20 19 20 20 19 19 16 18 17 16 nan nan nan 10 19 17 18 23 21 nan nan nan nan nan nan nan nan nan nan nan nan nan nan nan nan 20 24 24 25 24 nan nan 23
21 20 19 20 19 18 18 17 16 15 nan nan nan 11 21 18 20 23 nan nan nan nan nan nan nan nan nan nan nan nan nan nan nan nan nan nan nan nan nan nan nan nan nan
21 21 20 21 19 17 17 17 17 17 nan nan nan 16 22 21 21 21 nan nan nan nan nan nan nan nan nan nan nan nan nan nan nan nan nan nan nan nan nan nan nan nan nan
22 18 19 20 18 18 17 16 15 16 nan nan 16 18 24 22 21 23 21 nan nan nan nan nan nan nan nan nan nan nan nan nan nan nan nan nan nan nan nan nan nan nan nan
25 22 23 21 18 16 15 15 15 16 nan nan nan nan nan nan 20 20 nan nan nan nan nan nan nan nan nan nan nan nan nan nan nan nan nan nan nan nan nan nan nan nan nan
25 27 25 21 19 17 16 15 15 16 nan nan nan nan nan nan nan nan nan nan nan nan nan nan nan nan nan nan nan nan nan nan nan nan nan nan 22 nan nan nan nan nan nan
24 23 22 20 20 19 17 16 15 15 nan nan nan nan nan nan nan nan nan nan nan nan nan nan nan nan nan nan nan nan nan nan nan nan nan nan 23 nan nan nan nan nan nan
23 22 23 20 20 19 17 17 17 16 nan nan nan nan nan nan nan nan nan nan nan nan nan nan nan nan nan nan nan nan nan nan nan nan nan nan 26 27 nan nan nan nan nan
27 21 21 21 21 19 20 18 18 18 nan nan nan nan nan nan nan nan nan nan nan nan nan nan nan nan nan nan nan nan nan nan nan nan nan nan nan 29 31 nan nan nan nan
24 24 24 24 23 23 21 21 20 20 19 nan nan nan nan nan nan nan nan nan nan nan nan nan nan nan nan nan nan nan nan nan nan nan nan nan nan 30 29 nan nan nan nan
28 27 27 25 24 25 23 23 22 22 21 20 20 nan nan nan nan nan nan nan nan nan nan nan nan nan nan nan nan nan nan nan nan nan nan nan nan nan 31 29 nan nan nan
32 31 28 26 27 25 24 25 25 22 22 21 21 nan nan nan nan nan nan nan nan nan nan nan nan nan nan nan nan nan nan nan nan nan nan nan nan nan nan 33 33 nan nan
37 32 31 32 30 27 25 24 23 23 24 24 nan nan nan nan nan nan nan nan nan nan nan nan nan nan nan nan nan nan nan nan nan nan nan nan nan nan nan nan 34 35 nan
35 38 36 32 29 28 27 27 27 26 27 27 29 28 nan nan nan nan nan nan nan nan nan nan nan nan nan nan nan nan nan nan nan nan nan nan 37 nan nan nan nan 37 36
36 38 37 34 34 35 36 34 34 32 31 32 31 29 29 28 26 27 26 26 29 29 29 32 31 34 33 nan nan nan nan nan nan nan nan nan 37 38 nan nan nan nan nan
nan nan 37 37 38 40 41 40 38 35 35 34 33 30 31 31 30 29 29 28 31 31 30 33 35 35 nan nan nan nan nan nan nan nan nan nan nan nan nan nan nan nan nan
nan nan nan nan nan 45 47 47 45 43 39 39 39 35 34 33 32 32 31 31 32 33 33 35 39 43 nan nan nan nan nan nan nan nan nan nan nan nan nan nan nan nan nan
nan nan nan nan nan nan nan 50 48 46 44 43 43 43 44 43 41 37 34 35 36 39 37 39 43 46 44 46 44 nan nan nan nan nan nan nan nan nan nan nan nan nan nan
nan nan nan nan nan nan nan nan nan nan nan nan nan nan nan nan nan nan nan nan nan nan nan 45 46 46 46 nan nan nan nan nan nan nan nan nan nan nan nan nan nan nan nan
nan nan nan nan nan nan nan nan nan nan nan nan nan nan nan nan nan nan nan nan nan nan nan nan nan nan 43 43 nan nan nan nan nan nan nan nan nan nan nan nan nan nan nan
nan nan nan nan nan nan nan nan nan nan nan nan nan nan nan nan nan nan nan nan nan nan nan nan nan nan nan 46 nan nan nan nan nan nan nan nan nan nan nan nan nan nan nan
Wind_Direction
258 287 290 298 299 298 300 304 302 301 292 282 280 nan nan nan nan nan 309 307 nan nan nan nan nan nan nan nan nan nan nan nan nan nan nan nan nan nan nan nan nan nan nan
275 291 290 293 293 300 298 299 298 292 289 287 287 nan nan nan nan 313 305 nan nan nan nan nan nan nan nan nan nan nan nan nan nan nan nan nan nan nan nan nan nan nan nan
286 288 294 294 295 297 297 297 296 291 289 287 nan nan nan nan 316 311 nan nan nan nan nan nan nan nan nan nan nan nan nan nan nan nan nan nan nan nan 298 nan nan nan nan
284 286 294 291 295 292 293 296 285 284 288 289 nan nan nan nan 310 311 nan nan nan nan nan nan nan nan nan nan nan nan nan nan nan nan nan nan nan 295 280 286 nan nan nan
280 287 292 289 289 287 284 280 281 282 285 nan nan nan nan 316 310 313 308 nan nan nan nan nan nan nan nan nan nan nan nan nan nan nan nan nan nan 304 292 286 294 287 276
269 278 286 284 280 279 279 279 282 288 nan nan nan 327 321 315 310 307 309 nan nan nan nan nan nan nan nan nan nan nan nan nan nan nan nan 303 305 298 292 290 nan nan 277
263 272 274 274 268 271 279 283 284 291 nan nan nan 299 308 312 312 315 nan nan nan nan nan nan nan nan nan nan nan nan nan nan nan nan nan nan nan nan nan nan nan nan nan
259 269 269 259 260 270 277 281 289 298 nan nan nan 298 298 307 306 302 nan nan nan nan nan nan nan nan nan nan nan nan nan nan nan nan nan nan nan nan nan nan nan nan nan
255 258 257 261 258 257 266 274 286 292 nan nan 306 297 306 307 309 312 315 nan nan nan nan nan nan nan nan nan nan nan nan nan nan nan nan nan nan nan nan nan nan nan nan
256 243 243 258 260 258 262 268 276 282 nan nan nan nan nan nan 302 301 nan nan nan nan nan nan nan nan nan nan nan nan nan nan nan nan nan nan nan nan nan nan nan nan nan
249 247 246 250 257 257 258 264 270 277 nan nan nan nan nan nan nan nan nan nan nan nan nan nan nan nan nan nan nan nan nan nan nan nan nan nan 328 nan nan nan nan nan nan
252 241 240 239 249 255 253 266 270 274 nan nan nan nan nan nan nan nan nan nan nan nan nan nan nan nan nan nan nan nan nan nan nan nan nan nan 330 nan nan nan nan nan nan
246 230 234 240 247 255 256 259 260 264 nan nan nan nan nan nan nan nan nan nan nan nan nan nan nan nan nan nan nan nan nan nan nan nan nan nan 331 328 nan nan nan nan nan
243 247 244 248 249 252 253 260 270 272 nan nan nan nan nan nan nan nan nan nan nan nan nan nan nan nan nan nan nan nan nan nan nan nan nan nan nan 328 321 nan nan nan nan
243 244 243 243 242 244 250 255 262 271 276 nan nan nan nan nan nan nan nan nan nan nan nan nan nan nan nan nan nan nan nan nan nan nan nan nan nan 326 325 nan nan nan nan
236 234 238 242 247 251 252 257 260 267 274 275 278 nan nan nan nan nan nan nan nan nan nan nan nan nan nan nan nan nan nan nan nan nan nan nan nan nan 326 323 nan nan nan
229 230 234 241 246 251 257 260 262 268 270 274 276 nan nan nan nan nan nan nan nan nan nan nan nan nan nan nan nan nan nan nan nan nan nan nan nan nan nan 326 325 nan nan
240 235 238 238 247 252 256 258 259 266 273 274 nan nan nan nan nan nan nan nan nan nan nan nan nan nan nan nan nan nan nan nan nan nan nan nan nan nan nan nan 327 325 nan
236 239 232 244 247 251 250 251 258 265 267 270 271 273 nan nan nan nan nan nan nan nan nan nan nan nan nan nan nan nan nan nan nan nan nan nan 317 nan nan nan nan 319 316
238 243 247 244 250 251 251 253 255 260 264 268 272 274 279 280 285 286 287 292 294 294 298 302 306 304 304 nan nan nan nan nan nan nan nan nan 314 316 nan nan nan nan nan
nan nan 255 253 253 255 254 255 257 260 262 266 270 277 281 281 284 285 284 286 290 296 299 302 301 303 nan nan nan nan nan nan nan nan nan nan nan nan nan nan nan nan nan
nan nan nan nan nan 258 257 257 256 259 262 264 266 271 275 277 279 281 284 285 289 290 297 302 305 298 nan nan nan nan nan nan nan nan nan nan nan nan nan nan nan nan nan
nan nan nan nan nan nan nan 254 256 256 259 261 265 268 268 269 273 277 281 283 286 291 294 298 299 301 298 297 303 nan nan nan nan nan nan nan nan nan nan nan nan nan nan
nan nan nan nan nan nan nan nan nan nan nan nan nan nan nan nan nan nan nan nan nan nan nan 288 289 294 295 nan nan nan nan nan nan nan nan nan nan nan nan nan nan nan nan
nan nan nan nan nan nan nan nan nan nan nan nan nan nan nan nan nan nan nan nan nan nan nan nan nan nan 290 293 nan nan nan nan nan nan nan nan nan nan nan nan nan nan nan
nan nan nan nan nan nan nan nan nan nan nan nan nan nan nan nan nan nan nan nan nan nan nan nan nan nan nan 297 nan nan nan nan nan nan nan nan nan nan nan nan nan nan nan